Regional Weather Roundup
Issued by NWS

Home | Current Version | Previous Version | Graphics & Text | Print | Product List | Glossary On
Versions: 1 2 3 4 5 6 7 8 9 10 11 12 13 14 15 16 17 18 19 20 21 22 23 24 25 26 27 28 29 30 31 32 33 34 35 36 37 38 39 40 41 42 43 44 45 46 47 48 49 50
000
ASUS43 KFSD 050002
RWRSD

WEATHER ROUNDUP FOR SOUTH DAKOTA
NATIONAL WEATHER SERVICE SIOUX FALLS SD
700 PM CDT WED MAY 04 2016

NOTE: "FAIR" INDICATES FEW OR NO CLOUDS BELOW 12,000 FEET WITH NO
SIGNIFICANT WEATHER AND/OR OBSTRUCTIONS TO VISIBILITY.


SDZ001>005-009-010-012>017-050100-
NORTHWEST AND NORTH CENTRAL SOUTH DAKOTA

CITY           SKY/WX    TMP DP  RH WIND       PRES   REMARKS
BUFFALO          N/A     77  39  25 S16       29.93F
FAITH            N/A     74  43  32 S10       30.01F
MOBRIDGE       SUNNY     75  46  35 SE12      29.98F
$$

SDZ012>016-024>037-041>051-057-063-072>074-050100-
SOUTHWEST AND SOUTH CENTRAL SOUTH DAKOTA

CITY           SKY/WX    TMP DP  RH WIND       PRES   REMARKS
RAPID CTY ARPT SUNNY     73  41  31 S15       30.03F
PIERRE         SUNNY     73  38  27 W3        30.01F HAZE
CUSTER         SUNNY     68  29  23 SW9       30.13F
ELLSWORTH AFB  SUNNY     74  41  30 S16       30.02F
PHILIP         SUNNY     75  41  29 E8        30.02F
PINE RIDGE     SUNNY     74  39  28 SE10      30.06F
WINNER         FAIR      73  39  29 N3        30.05F
$$

SDZ004>011-016>023-039-040-050100-
NORTHEAST SOUTH DAKOTA

CITY           SKY/WX    TMP DP  RH WIND       PRES   REMARKS
ABERDEEN       SUNNY     74  35  24 N6        30.00F
WATERTOWN      SUNNY     67  30  25 N10       30.01S
SISSETON         N/A     70  26  19 N8        29.98F
$$

SDZ017-020-022-023-036>040-048>070-050100-
SOUTHEAST SOUTH DAKOTA

CITY           SKY/WX    TMP DP  RH WIND       PRES   REMARKS
SIOUX FALLS    MOSUNNY   66  32  28 N13       29.99F
HURON          SUNNY     71  36  27 NW9       30.01F
MITCHELL       SUNNY     69  36  29 NW9       30.02F
YANKTON        SUNNY     66  36  32 NW12      30.01F
$$

ABBREVIATIONS USED IN REMARKS
   TC - TEMPERATURE IN CELSIUS
  WCI - WIND CHILL INDEX
   HX - HEAT INDEX
  VSB - VISIBILITY





USA.gov is the U.S. government's official web portal to all federal, state and local government web resources and services.